BHE178 ZBAD-ZWWW

Flight info

Callsign BHE178
Flight time 3h 51m
Altitude 32100
Route PEGSO7F PEGSO B215 IBANO G470 QTV W99 FKG B215 WUR
Aircraft B739/M-SDE2E3FGHIRWXY/LB1

Departure

Time 2026-05-05 04:47
Airport Beijing Daxing International Airport (ZBAD)

Arrival

Time 2026-05-05 08:38
Airport Ürümqi Tianshan International Airport (ZWWW)
Time Latitude Longitude Altitude Speed Heading
2026-05-05 04:47 39.46297 116.40425 1792 ft 179 kts 176°
2026-05-05 04:47 39.45028 116.40591 2292 ft 186 kts 177°
2026-05-05 04:47 39.43697 116.40779 2647 ft 196 kts 176°
2026-05-05 04:47 39.42348 116.41014 3155 ft 199 kts 176°
2026-05-05 04:48 39.40903 116.41267 3339 ft 219 kts 176°
2026-05-05 04:48 39.39360 116.41523 3728 ft 227 kts 178°
2026-05-05 04:48 39.37745 116.41778 4015 ft 244 kts 178°
2026-05-05 04:48 39.36024 116.41977 4522 ft 247 kts 188°
2026-05-05 04:49 39.34426 116.41316 5179 ft 245 kts 214°
2026-05-05 04:49 39.33149 116.39874 5925 ft 242 kts 231°
2026-05-05 04:49 39.32257 116.38023 6559 ft 246 kts 240°
2026-05-05 04:49 39.31444 116.36052 7121 ft 251 kts 240°
2026-05-05 04:50 39.30613 116.34071 7688 ft 252 kts 239°
2026-05-05 04:50 39.29769 116.32074 7794 ft 253 kts 239°
2026-05-05 04:50 39.28929 116.30095 7837 ft 250 kts 239°
2026-05-05 04:50 39.28090 116.28124 7840 ft 252 kts 239°
2026-05-05 04:51 39.27236 116.26124 7870 ft 256 kts 239°
2026-05-05 04:51 39.26372 116.24100 8243 ft 259 kts 239°
2026-05-05 04:51 39.25499 116.22060 8897 ft 260 kts 239°
2026-05-05 04:51 39.24618 116.20000 9518 ft 264 kts 240°
2026-05-05 04:52 39.23724 116.17908 10057 ft 269 kts 240°
2026-05-05 04:52 39.22796 116.15744 10309 ft 286 kts 240°
2026-05-05 04:52 39.21799 116.13424 10459 ft 305 kts 240°
2026-05-05 04:52 39.20740 116.10961 10596 ft 323 kts 240°
2026-05-05 04:53 39.19636 116.08390 10719 ft 341 kts 240°
2026-05-05 04:53 39.18464 116.05663 10973 ft 353 kts 240°
2026-05-05 04:53 39.17266 116.02876 11428 ft 358 kts 241°
2026-05-05 04:53 39.16054 116.00061 11960 ft 360 kts 240°
2026-05-05 04:54 39.14832 115.97227 12446 ft 365 kts 241°
2026-05-05 04:54 39.13586 115.94346 12902 ft 370 kts 241°
2026-05-05 04:54 39.12324 115.91431 13317 ft 376 kts 242°
2026-05-05 04:54 39.11046 115.88482 13805 ft 378 kts 242°
2026-05-05 04:55 39.09763 115.85522 14279 ft 380 kts 242°
2026-05-05 04:55 39.08472 115.82543 14758 ft 382 kts 242°
2026-05-05 04:55 39.07170 115.79545 15212 ft 385 kts 242°
2026-05-05 04:55 39.05859 115.76529 15680 ft 387 kts 242°
2026-05-05 04:56 39.04543 115.73502 16139 ft 389 kts 242°
2026-05-05 04:56 39.03215 115.70450 16528 ft 393 kts 242°
2026-05-05 04:56 39.01871 115.67366 16901 ft 397 kts 242°
2026-05-05 04:56 39.00520 115.64269 17355 ft 399 kts 242°
2026-05-05 04:57 38.99161 115.61155 17847 ft 399 kts 242°
2026-05-05 04:57 38.97798 115.58037 18238 ft 402 kts 243°
2026-05-05 04:57 38.96427 115.54900 18586 ft 404 kts 243°
2026-05-05 04:57 38.95045 115.51746 18960 ft 406 kts 243°
2026-05-05 04:58 38.93718 115.48543 19331 ft 407 kts 246°
2026-05-05 04:58 38.92526 115.45246 19702 ft 408 kts 248°
2026-05-05 04:58 38.91381 115.41901 20068 ft 410 kts 248°
2026-05-05 04:58 38.90241 115.38538 20435 ft 412 kts 248°
2026-05-05 04:59 38.89083 115.35152 20721 ft 416 kts 248°
2026-05-05 04:59 38.87906 115.31748 21065 ft 418 kts 248°
2026-05-05 04:59 38.86717 115.28347 21494 ft 418 kts 248°
2026-05-05 04:59 38.85518 115.24937 21862 ft 420 kts 248°
2026-05-05 05:00 38.84312 115.21520 22181 ft 422 kts 248°
2026-05-05 05:00 38.83096 115.18082 22513 ft 424 kts 248°
2026-05-05 05:00 38.81873 115.14627 22853 ft 426 kts 248°
2026-05-05 05:00 38.80646 115.11166 23187 ft 428 kts 248°
2026-05-05 05:01 38.79413 115.07688 23470 ft 430 kts 248°
2026-05-05 05:01 38.78174 115.04195 23747 ft 431 kts 248°
2026-05-05 05:01 38.76928 115.00690 23990 ft 434 kts 248°
2026-05-05 05:01 38.75671 114.97157 24230 ft 436 kts 248°
2026-05-05 05:02 38.74413 114.93623 24522 ft 437 kts 248°
2026-05-05 05:02 38.73151 114.90076 24795 ft 438 kts 248°
2026-05-05 05:02 38.71885 114.86520 25050 ft 440 kts 248°
2026-05-05 05:02 38.70613 114.82950 25306 ft 442 kts 248°
2026-05-05 05:03 38.69335 114.79366 25571 ft 443 kts 248°
2026-05-05 05:03 38.68053 114.75778 25848 ft 444 kts 248°
2026-05-05 05:03 38.66764 114.72174 26086 ft 446 kts 248°
2026-05-05 05:03 38.65469 114.68556 26329 ft 448 kts 248°
2026-05-05 05:04 38.64171 114.64933 26553 ft 449 kts 248°
2026-05-05 05:04 38.62863 114.61289 26767 ft 452 kts 248°
2026-05-05 05:04 38.61552 114.57637 27026 ft 452 kts 249°
2026-05-05 05:04 38.60244 114.53983 27378 ft 451 kts 249°
2026-05-05 05:05 38.58940 114.50350 27782 ft 449 kts 249°
2026-05-05 05:05 38.57650 114.46781 28143 ft 448 kts 249°
2026-05-05 05:05 38.56323 114.43124 28467 ft 448 kts 249°
2026-05-05 05:05 38.55029 114.39566 28826 ft 447 kts 249°
2026-05-05 05:06 38.53721 114.35975 29179 ft 446 kts 249°
2026-05-05 05:06 38.52415 114.32387 29476 ft 446 kts 249°
2026-05-05 05:06 38.51108 114.28798 29824 ft 445 kts 249°
2026-05-05 05:06 38.49804 114.25223 30127 ft 444 kts 249°
2026-05-05 05:07 38.48500 114.21651 30369 ft 444 kts 249°
2026-05-05 05:07 38.47195 114.18079 30591 ft 444 kts 249°
2026-05-05 05:07 38.45888 114.14506 30845 ft 444 kts 249°
2026-05-05 05:07 38.44582 114.10939 31106 ft 444 kts 249°
2026-05-05 05:08 38.43274 114.07372 31321 ft 444 kts 249°
2026-05-05 05:08 38.41965 114.03808 31521 ft 445 kts 250°
2026-05-05 05:08 38.40650 114.00224 31659 ft 447 kts 250°
2026-05-05 05:08 38.39336 113.96642 31844 ft 445 kts 250°
2026-05-05 05:09 38.38025 113.93074 31822 ft 444 kts 250°
2026-05-05 05:09 38.35405 113.85943 31855 ft 446 kts 250°
2026-05-05 05:10 38.32748 113.78769 31847 ft 449 kts 249°
2026-05-05 05:10 38.30039 113.71601 31859 ft 450 kts 249°
2026-05-05 05:11 38.27320 113.64435 31880 ft 449 kts 250°
2026-05-05 05:11 38.24611 113.57277 31870 ft 448 kts 249°
2026-05-05 05:12 38.21896 113.50116 31872 ft 450 kts 249°
2026-05-05 05:12 38.19171 113.42948 31869 ft 450 kts 249°
2026-05-05 05:13 38.16441 113.35784 31867 ft 450 kts 250°
2026-05-05 05:13 38.13755 113.28618 31882 ft 449 kts 250°
2026-05-05 05:14 38.11095 113.21462 31889 ft 447 kts 250°
2026-05-05 05:14 38.08452 113.14375 31898 ft 447 kts 250°
2026-05-05 05:15 38.05782 113.07248 31908 ft 447 kts 250°
2026-05-05 05:15 38.03107 113.00130 31908 ft 446 kts 250°
2026-05-05 05:16 38.00436 112.93033 31903 ft 446 kts 250°
2026-05-05 05:16 37.97758 112.85938 31902 ft 446 kts 250°
2026-05-05 05:17 37.95084 112.78868 31902 ft 445 kts 250°
2026-05-05 05:17 37.92405 112.71801 31910 ft 445 kts 250°
2026-05-05 05:18 37.89720 112.64735 31903 ft 445 kts 250°
2026-05-05 05:18 37.87026 112.57675 31903 ft 446 kts 249°
2026-05-05 05:19 37.84078 112.50741 31906 ft 448 kts 246°
2026-05-05 05:19 37.81082 112.43834 31880 ft 448 kts 247°
2026-05-05 05:20 37.78472 112.36745 31882 ft 438 kts 261°
2026-05-05 05:20 37.77888 112.29232 31892 ft 426 kts 279°
2026-05-05 05:21 37.78642 112.21823 31891 ft 426 kts 281°
2026-05-05 05:21 37.79416 112.14398 31893 ft 426 kts 281°
2026-05-05 05:22 37.80151 112.06955 31892 ft 427 kts 281°
2026-05-05 05:22 37.80867 111.99494 31889 ft 428 kts 280°
2026-05-05 05:23 37.81577 111.92028 31889 ft 428 kts 280°
2026-05-05 05:23 37.82284 111.84562 31890 ft 428 kts 280°
2026-05-05 05:24 37.82987 111.77099 31895 ft 427 kts 280°
2026-05-05 05:24 37.83691 111.69655 31890 ft 425 kts 281°
2026-05-05 05:25 37.84481 111.62303 31895 ft 424 kts 281°
2026-05-05 05:25 37.85279 111.54937 31899 ft 422 kts 281°
2026-05-05 05:26 37.86042 111.47587 31883 ft 421 kts 280°
2026-05-05 05:26 37.86691 111.40228 31881 ft 420 kts 279°
2026-05-05 05:27 37.87316 111.32889 31880 ft 419 kts 279°
2026-05-05 05:27 37.88260 111.21883 31874 ft 419 kts 279°
2026-05-05 05:28 37.88890 111.14529 31870 ft 421 kts 279°
2026-05-05 05:28 37.89517 111.07167 31851 ft 421 kts 279°
2026-05-05 05:29 37.90142 110.99787 31828 ft 422 kts 279°
2026-05-05 05:29 37.90763 110.92391 31825 ft 422 kts 279°
2026-05-05 05:30 37.91380 110.84992 31817 ft 423 kts 279°
2026-05-05 05:30 37.91992 110.77587 31799 ft 423 kts 279°
2026-05-05 05:31 37.92601 110.70182 31799 ft 423 kts 279°
2026-05-05 05:31 37.93240 110.62782 31792 ft 422 kts 281°
2026-05-05 05:32 37.93865 110.56665 31789 ft 422 kts 281°
2026-05-05 05:32 37.94633 110.49302 31795 ft 421 kts 281°
2026-05-05 05:33 37.95503 110.40758 31775 ft 420 kts 281°
2026-05-05 05:33 37.96120 110.34608 31771 ft 419 kts 281°
2026-05-05 05:34 37.96846 110.27286 31775 ft 418 kts 281°
2026-05-05 05:34 37.97567 110.19973 31769 ft 418 kts 281°
2026-05-05 05:35 37.98278 110.12717 31768 ft 417 kts 281°
2026-05-05 05:35 37.98988 110.05417 31759 ft 417 kts 281°
2026-05-05 05:36 37.99692 109.98132 31763 ft 416 kts 281°
2026-05-05 05:36 38.00391 109.90858 31750 ft 415 kts 281°
2026-05-05 05:37 38.01085 109.83590 31752 ft 415 kts 281°
2026-05-05 05:37 38.01774 109.76316 31740 ft 415 kts 281°
2026-05-05 05:38 38.02459 109.69044 31743 ft 415 kts 281°
2026-05-05 05:38 38.03140 109.61761 31737 ft 416 kts 281°
2026-05-05 05:39 38.03818 109.54466 31733 ft 416 kts 281°
2026-05-05 05:39 38.04491 109.47168 31723 ft 417 kts 281°
2026-05-05 05:40 38.05161 109.39859 31729 ft 417 kts 281°
2026-05-05 05:40 38.05826 109.32549 31723 ft 417 kts 281°
2026-05-05 05:41 38.06486 109.25242 31715 ft 416 kts 281°
2026-05-05 05:41 38.07139 109.17956 31716 ft 416 kts 281°
2026-05-05 05:42 38.07786 109.10674 31708 ft 415 kts 281°
2026-05-05 05:42 38.08430 109.03390 31713 ft 415 kts 280°
2026-05-05 05:43 38.09068 108.96113 31712 ft 415 kts 280°
2026-05-05 05:43 38.09701 108.88839 31712 ft 414 kts 280°
2026-05-05 05:44 38.10326 108.81617 31713 ft 414 kts 280°
2026-05-05 05:44 38.10949 108.74353 31716 ft 414 kts 280°
2026-05-05 05:45 38.11568 108.67089 31707 ft 413 kts 280°
2026-05-05 05:45 38.12182 108.59834 31709 ft 413 kts 280°
2026-05-05 05:46 38.12791 108.52582 31707 ft 413 kts 280°
2026-05-05 05:46 38.13395 108.45330 31709 ft 413 kts 280°
2026-05-05 05:47 38.13995 108.38082 31709 ft 413 kts 280°
2026-05-05 05:47 38.14589 108.30839 31708 ft 412 kts 280°
2026-05-05 05:48 38.15268 108.23619 31709 ft 411 kts 281°
2026-05-05 05:48 38.15998 108.16412 31706 ft 411 kts 281°
2026-05-05 05:49 38.16714 108.09211 31710 ft 411 kts 281°
2026-05-05 05:49 38.17416 108.02007 31710 ft 411 kts 281°
2026-05-05 05:50 38.18111 107.94804 31697 ft 411 kts 281°
2026-05-05 05:50 38.18802 107.87602 31705 ft 411 kts 281°
2026-05-05 05:51 38.19490 107.80391 31704 ft 411 kts 281°
2026-05-05 05:51 38.20179 107.73223 31696 ft 411 kts 282°
2026-05-05 05:52 38.20995 107.66030 31699 ft 411 kts 282°
2026-05-05 05:52 38.21840 107.58844 31698 ft 411 kts 282°
2026-05-05 05:53 38.22672 107.51649 31698 ft 411 kts 282°
2026-05-05 05:53 38.23488 107.44478 31697 ft 411 kts 282°
2026-05-05 05:54 38.24298 107.37288 31692 ft 410 kts 282°
2026-05-05 05:54 38.25102 107.30103 31698 ft 409 kts 282°
2026-05-05 05:55 38.25900 107.22933 31698 ft 409 kts 282°
2026-05-05 05:55 38.26693 107.15769 31694 ft 408 kts 282°
2026-05-05 05:56 38.27480 107.08619 31692 ft 408 kts 282°
2026-05-05 05:56 38.28263 107.01467 31685 ft 408 kts 282°
2026-05-05 05:57 38.29039 106.94329 31688 ft 407 kts 282°
2026-05-05 05:57 38.29812 106.87191 31684 ft 407 kts 282°
2026-05-05 05:58 38.30580 106.80051 31683 ft 407 kts 281°
2026-05-05 05:58 38.31337 106.72964 31678 ft 407 kts 281°
2026-05-05 05:59 38.32096 106.65831 31667 ft 407 kts 281°
2026-05-05 05:59 38.32851 106.58685 31666 ft 407 kts 281°
2026-05-05 06:00 38.33601 106.51546 31671 ft 407 kts 281°
2026-05-05 06:00 38.34348 106.44397 31663 ft 407 kts 281°
2026-05-05 06:01 38.35689 106.37450 31657 ft 402 kts 293°
2026-05-05 06:01 38.37723 106.30805 31659 ft 402 kts 293°
2026-05-05 06:02 38.39712 106.24137 31659 ft 403 kts 292°
2026-05-05 06:02 38.41645 106.17436 31657 ft 404 kts 287°
2026-05-05 06:03 38.41953 106.13852 31682 ft 411 kts 271°
2026-05-05 06:03 38.41562 106.10213 31660 ft 419 kts 262°
2026-05-05 06:03 38.40610 106.06670 31659 ft 429 kts 249°
2026-05-05 06:03 38.38985 106.03423 31699 ft 438 kts 241°
2026-05-05 06:04 38.35254 105.97242 31673 ft 440 kts 239°
2026-05-05 06:04 38.31483 105.91114 31667 ft 439 kts 240°
2026-05-05 06:05 38.27789 105.85019 31655 ft 436 kts 240°
2026-05-05 06:05 38.24083 105.78909 31662 ft 435 kts 240°
2026-05-05 06:06 38.20433 105.72796 31660 ft 435 kts 240°
2026-05-05 06:06 38.16764 105.66677 31672 ft 435 kts 240°
2026-05-05 06:07 38.13088 105.60579 31667 ft 434 kts 240°
2026-05-05 06:07 38.09409 105.54495 31659 ft 434 kts 240°
2026-05-05 06:08 38.05729 105.48417 31645 ft 434 kts 240°
2026-05-05 06:08 38.02050 105.42351 31655 ft 434 kts 239°
2026-05-05 06:09 37.98391 105.36331 31649 ft 434 kts 239°
2026-05-05 06:09 37.94702 105.30282 31651 ft 434 kts 239°
2026-05-05 06:10 37.91011 105.24239 31649 ft 433 kts 239°
2026-05-05 06:10 37.87323 105.18210 31650 ft 433 kts 239°
2026-05-05 06:11 37.83633 105.12190 31645 ft 433 kts 239°
2026-05-05 06:11 37.79942 105.06176 31649 ft 432 kts 239°
2026-05-05 06:12 37.76252 105.00175 31643 ft 432 kts 239°
2026-05-05 06:12 37.72562 104.94186 31640 ft 432 kts 239°
2026-05-05 06:13 37.68872 104.88207 31645 ft 431 kts 239°
2026-05-05 06:13 37.65183 104.82240 31642 ft 431 kts 239°
2026-05-05 06:14 37.61491 104.76281 31655 ft 431 kts 239°
2026-05-05 06:14 37.57793 104.70320 31651 ft 432 kts 239°
2026-05-05 06:15 37.54089 104.64361 31655 ft 432 kts 239°
2026-05-05 06:15 37.50371 104.58390 31634 ft 433 kts 239°
2026-05-05 06:16 37.46652 104.52427 31650 ft 433 kts 238°
2026-05-05 06:16 37.42956 104.46438 31660 ft 433 kts 239°
2026-05-05 06:17 37.39321 104.40377 31660 ft 434 kts 240°
2026-05-05 06:17 37.35676 104.34309 31657 ft 435 kts 239°
2026-05-05 06:18 37.32015 104.28249 31643 ft 435 kts 239°
2026-05-05 06:18 37.28348 104.22197 31662 ft 435 kts 239°
2026-05-05 06:19 37.24679 104.16154 31670 ft 435 kts 239°
2026-05-05 06:19 37.21619 104.11140 31664 ft 435 kts 239°
2026-05-05 06:20 37.18188 104.03621 31685 ft 422 kts 254°
2026-05-05 06:20 37.16041 103.96764 31681 ft 423 kts 253°
2026-05-05 06:21 37.14673 103.90966 31700 ft 414 kts 266°
2026-05-05 06:21 37.14559 103.83824 31692 ft 408 kts 280°
2026-05-05 06:22 37.15639 103.76854 31711 ft 408 kts 282°
2026-05-05 06:22 37.16776 103.69867 31715 ft 409 kts 282°
2026-05-05 06:23 37.17894 103.62853 31724 ft 411 kts 282°
2026-05-05 06:23 37.18995 103.55817 31726 ft 412 kts 282°
2026-05-05 06:24 37.20090 103.48755 31732 ft 412 kts 282°
2026-05-05 06:24 37.21181 103.41687 31743 ft 413 kts 281°
2026-05-05 06:25 37.22268 103.34611 31746 ft 413 kts 281°
2026-05-05 06:25 37.23352 103.27531 31756 ft 413 kts 281°
2026-05-05 06:26 37.24432 103.20449 31756 ft 413 kts 281°
2026-05-05 06:26 37.25507 103.13370 31743 ft 412 kts 281°
2026-05-05 06:27 37.27109 103.02762 31769 ft 412 kts 280°
2026-05-05 06:28 37.28171 102.95691 31764 ft 413 kts 281°
2026-05-05 06:28 37.29231 102.88605 31770 ft 413 kts 281°
2026-05-05 06:29 37.30285 102.81527 31775 ft 412 kts 281°
2026-05-05 06:29 37.31335 102.74451 31784 ft 412 kts 280°
2026-05-05 06:30 37.32381 102.67368 31780 ft 413 kts 280°
2026-05-05 06:30 37.33421 102.60295 31795 ft 414 kts 280°
2026-05-05 06:31 37.34457 102.53224 31799 ft 414 kts 280°
2026-05-05 06:31 37.35500 102.46049 31810 ft 414 kts 280°
2026-05-05 06:32 37.36735 102.39028 31825 ft 414 kts 283°
2026-05-05 06:32 37.38157 102.32021 31814 ft 413 kts 283°
2026-05-05 06:33 37.39567 102.25022 31810 ft 412 kts 283°
2026-05-05 06:33 37.40951 102.18028 31820 ft 414 kts 283°
2026-05-05 06:34 37.42342 102.10944 32008 ft 418 kts 283°
2026-05-05 06:34 37.43035 102.07413 32449 ft 413 kts 283°
2026-05-05 06:34 37.43710 102.03969 32882 ft 407 kts 283°
2026-05-05 06:34 37.44364 102.00611 33112 ft 407 kts 283°
2026-05-05 06:35 37.45035 101.97140 33219 ft 409 kts 283°
2026-05-05 06:35 37.45706 101.93652 33370 ft 411 kts 284°
2026-05-05 06:35 37.46376 101.90161 33595 ft 410 kts 283°
2026-05-05 06:35 37.47042 101.86694 33801 ft 407 kts 283°
2026-05-05 06:36 37.47707 101.83224 33788 ft 409 kts 284°
2026-05-05 06:36 37.49040 101.76264 33798 ft 409 kts 283°
2026-05-05 06:37 37.50452 101.69333 33797 ft 408 kts 289°
2026-05-05 06:37 37.52882 101.62882 33823 ft 409 kts 296°
2026-05-05 06:38 37.55572 101.56663 33806 ft 411 kts 296°
2026-05-05 06:38 37.58289 101.50323 33804 ft 412 kts 296°
2026-05-05 06:39 37.61000 101.43949 33810 ft 413 kts 296°
2026-05-05 06:39 37.63704 101.37570 33807 ft 412 kts 296°
2026-05-05 06:40 37.66406 101.31183 33823 ft 412 kts 296°
2026-05-05 06:40 37.69085 101.24836 33812 ft 412 kts 295°
2026-05-05 06:41 37.71796 101.18397 33816 ft 413 kts 295°
2026-05-05 06:41 37.74489 101.11994 33833 ft 413 kts 295°
2026-05-05 06:42 37.77186 101.05564 33831 ft 415 kts 295°
2026-05-05 06:42 37.79868 100.99160 33829 ft 415 kts 295°
2026-05-05 06:43 37.82562 100.92715 33846 ft 414 kts 295°
2026-05-05 06:43 37.85333 100.86325 33843 ft 415 kts 296°
2026-05-05 06:44 37.88194 100.79976 33838 ft 415 kts 297°
2026-05-05 06:44 37.91051 100.73620 33849 ft 415 kts 296°
2026-05-05 06:45 37.93896 100.67245 33846 ft 415 kts 296°
2026-05-05 06:45 37.96730 100.60864 33858 ft 415 kts 296°
2026-05-05 06:46 37.99552 100.54492 33833 ft 414 kts 296°
2026-05-05 06:46 38.02365 100.48128 33852 ft 414 kts 296°
2026-05-05 06:47 38.05176 100.41755 33850 ft 414 kts 296°
2026-05-05 06:47 38.07983 100.35378 33846 ft 414 kts 296°
2026-05-05 06:48 38.10791 100.28988 33845 ft 414 kts 296°
2026-05-05 06:48 38.13588 100.22608 33865 ft 414 kts 296°
2026-05-05 06:49 38.16390 100.16203 33851 ft 415 kts 296°
2026-05-05 06:49 38.19194 100.09784 33850 ft 416 kts 296°
2026-05-05 06:50 38.21980 100.03390 33853 ft 417 kts 296°
2026-05-05 06:50 38.24792 99.96924 33885 ft 418 kts 295°
2026-05-05 06:51 38.27611 99.90424 33867 ft 420 kts 295°
2026-05-05 06:51 38.30422 99.83923 33893 ft 419 kts 295°
2026-05-05 06:52 38.33247 99.77417 33887 ft 420 kts 295°
2026-05-05 06:52 38.36062 99.70890 33883 ft 420 kts 295°
2026-05-05 06:53 38.38865 99.64376 33886 ft 419 kts 295°
2026-05-05 06:53 38.41658 99.57873 33887 ft 418 kts 295°
2026-05-05 06:54 38.44443 99.51379 33891 ft 417 kts 295°
2026-05-05 06:54 38.47219 99.44890 33908 ft 417 kts 295°
2026-05-05 06:55 38.49992 99.38394 33909 ft 417 kts 295°
2026-05-05 06:55 38.52766 99.31878 33909 ft 418 kts 295°
2026-05-05 06:56 38.55540 99.25357 33889 ft 418 kts 295°
2026-05-05 06:56 38.58306 99.18836 33904 ft 416 kts 295°
2026-05-05 06:57 38.61052 99.12346 33914 ft 415 kts 295°
2026-05-05 06:57 38.63798 99.05860 33916 ft 416 kts 295°
2026-05-05 06:58 38.66551 98.99332 33916 ft 418 kts 295°
2026-05-05 06:58 38.69315 98.92763 33913 ft 420 kts 295°
2026-05-05 06:59 38.72067 98.86210 33915 ft 422 kts 295°
2026-05-05 06:59 38.74865 98.79533 33913 ft 423 kts 295°
2026-05-05 07:00 38.77624 98.72937 33900 ft 423 kts 295°
2026-05-05 07:00 38.80415 98.66250 33940 ft 422 kts 294°
2026-05-05 07:01 38.83162 98.59651 33895 ft 422 kts 294°
2026-05-05 07:01 38.85924 98.53002 33896 ft 422 kts 294°
2026-05-05 07:02 38.88687 98.46340 33868 ft 422 kts 294°
2026-05-05 07:02 38.91436 98.39695 33898 ft 421 kts 294°
2026-05-05 07:03 38.94175 98.33061 33899 ft 420 kts 293°
2026-05-05 07:03 38.96906 98.26433 33895 ft 420 kts 293°
2026-05-05 07:04 38.99634 98.19796 33889 ft 419 kts 293°
2026-05-05 07:04 39.02353 98.13166 33917 ft 419 kts 293°
2026-05-05 07:05 39.05070 98.06527 33914 ft 420 kts 293°
2026-05-05 07:05 39.07770 97.99900 33921 ft 422 kts 293°
2026-05-05 07:06 39.10506 97.93198 33904 ft 423 kts 293°
2026-05-05 07:06 39.13248 97.86463 33910 ft 425 kts 293°
2026-05-05 07:07 39.15985 97.79715 33951 ft 427 kts 293°
2026-05-05 07:07 39.18742 97.72899 33931 ft 431 kts 293°
2026-05-05 07:08 39.21520 97.66024 33926 ft 433 kts 293°
2026-05-05 07:08 39.23854 97.60243 33929 ft 434 kts 293°
2026-05-05 07:09 39.27099 97.52222 33948 ft 434 kts 293°
2026-05-05 07:09 39.29437 97.46432 33949 ft 434 kts 293°
2026-05-05 07:10 39.32222 97.39517 33946 ft 433 kts 293°
2026-05-05 07:10 39.34980 97.32653 33992 ft 433 kts 293°
2026-05-05 07:11 39.37720 97.25823 33952 ft 423 kts 293°
2026-05-05 07:11 39.40410 97.19096 33952 ft 421 kts 292°
2026-05-05 07:12 39.43088 97.12379 33943 ft 420 kts 292°
2026-05-05 07:12 39.45759 97.05672 33943 ft 418 kts 292°
2026-05-05 07:13 39.48426 96.98993 33963 ft 417 kts 293°
2026-05-05 07:13 39.51114 96.92313 33948 ft 419 kts 293°
2026-05-05 07:14 39.53809 96.85596 33948 ft 422 kts 293°
2026-05-05 07:14 39.56516 96.78829 33950 ft 424 kts 292°
2026-05-05 07:15 39.59234 96.72017 33955 ft 427 kts 292°
2026-05-05 07:15 39.61962 96.65166 34003 ft 428 kts 292°
2026-05-05 07:16 39.64665 96.58357 33970 ft 420 kts 291°
2026-05-05 07:16 39.67291 96.51687 33944 ft 416 kts 291°
2026-05-05 07:17 39.69912 96.45004 33947 ft 415 kts 291°
2026-05-05 07:17 39.72546 96.38274 33942 ft 415 kts 291°
2026-05-05 07:18 39.75140 96.31636 33947 ft 417 kts 291°
2026-05-05 07:18 39.77774 96.24879 33913 ft 420 kts 291°
2026-05-05 07:19 39.80426 96.18066 33903 ft 424 kts 291°
2026-05-05 07:19 39.83089 96.11211 33895 ft 425 kts 291°
2026-05-05 07:20 39.85754 96.04335 33885 ft 426 kts 291°
2026-05-05 07:20 39.88411 95.97464 33873 ft 422 kts 291°
2026-05-05 07:21 39.91026 95.90693 33843 ft 414 kts 291°
2026-05-05 07:21 39.93601 95.84001 33851 ft 413 kts 291°
2026-05-05 07:22 39.96164 95.77322 33853 ft 412 kts 291°
2026-05-05 07:22 39.98723 95.70636 33828 ft 412 kts 291°
2026-05-05 07:23 40.01286 95.63929 33826 ft 413 kts 291°
2026-05-05 07:23 40.03849 95.57208 33820 ft 415 kts 291°
2026-05-05 07:24 40.06405 95.50490 33823 ft 417 kts 291°
2026-05-05 07:24 40.08988 95.43684 33797 ft 421 kts 291°
2026-05-05 07:25 40.11593 95.36806 33796 ft 424 kts 291°
2026-05-05 07:25 40.14215 95.29869 33796 ft 427 kts 290°
2026-05-05 07:26 40.16849 95.22880 33791 ft 430 kts 290°
2026-05-05 07:26 40.19492 95.15856 33771 ft 431 kts 290°
2026-05-05 07:27 40.22163 95.08820 33766 ft 432 kts 291°
2026-05-05 07:27 40.24853 95.01799 33766 ft 431 kts 290°
2026-05-05 07:28 40.27533 94.94777 33765 ft 431 kts 290°
2026-05-05 07:28 40.30227 94.87755 33761 ft 434 kts 292°
2026-05-05 07:29 40.33754 94.81332 33766 ft 442 kts 302°
2026-05-05 07:29 40.37632 94.75035 33768 ft 445 kts 302°
2026-05-05 07:30 40.41495 94.68708 33778 ft 443 kts 301°
2026-05-05 07:30 40.47229 94.59220 33766 ft 441 kts 301°
2026-05-05 07:31 40.51018 94.52917 33766 ft 443 kts 301°
2026-05-05 07:31 40.54866 94.46502 33782 ft 445 kts 301°
2026-05-05 07:32 40.58703 94.40095 33794 ft 447 kts 301°
2026-05-05 07:32 40.62558 94.33648 33819 ft 446 kts 301°
2026-05-05 07:33 40.66335 94.27329 33803 ft 438 kts 301°
2026-05-05 07:33 40.70090 94.21020 33797 ft 437 kts 301°
2026-05-05 07:34 40.73834 94.14714 33799 ft 437 kts 301°
2026-05-05 07:34 40.77573 94.08406 33822 ft 437 kts 301°
2026-05-05 07:35 40.81319 94.02074 33815 ft 438 kts 301°
2026-05-05 07:35 40.85067 93.95727 33839 ft 439 kts 301°
2026-05-05 07:36 40.88823 93.89354 33829 ft 439 kts 300°
2026-05-05 07:36 40.92585 93.82994 33822 ft 440 kts 302°
2026-05-05 07:37 40.96564 93.76788 33818 ft 444 kts 303°
2026-05-05 07:37 41.00619 93.70615 33833 ft 445 kts 303°
2026-05-05 07:38 41.04662 93.64401 33829 ft 446 kts 303°
2026-05-05 07:38 41.08693 93.58146 33830 ft 446 kts 303°
2026-05-05 07:39 41.12694 93.51908 33830 ft 447 kts 303°
2026-05-05 07:39 41.16716 93.45621 33838 ft 447 kts 303°
2026-05-05 07:40 41.20733 93.39329 33840 ft 447 kts 303°
2026-05-05 07:40 41.24749 93.33028 33847 ft 447 kts 303°
2026-05-05 07:41 41.28759 93.26723 33844 ft 446 kts 303°
2026-05-05 07:41 41.32766 93.20410 33877 ft 446 kts 302°
2026-05-05 07:42 41.36765 93.14097 33861 ft 446 kts 302°
2026-05-05 07:42 41.40759 93.07776 33870 ft 446 kts 302°
2026-05-05 07:43 41.44750 93.01448 33880 ft 447 kts 302°
2026-05-05 07:43 41.48747 92.95096 33883 ft 448 kts 302°
2026-05-05 07:44 41.52749 92.88724 33926 ft 448 kts 302°
2026-05-05 07:44 41.56740 92.82358 33899 ft 446 kts 302°
2026-05-05 07:45 41.60707 92.76019 33886 ft 443 kts 302°
2026-05-05 07:45 41.64647 92.69705 33897 ft 441 kts 302°
2026-05-05 07:46 41.68569 92.63406 33906 ft 440 kts 302°
2026-05-05 07:46 41.72482 92.57108 33910 ft 440 kts 302°
2026-05-05 07:47 41.76391 92.50804 33928 ft 440 kts 302°
2026-05-05 07:47 41.80295 92.44495 33919 ft 439 kts 302°
2026-05-05 07:48 41.84192 92.38186 33917 ft 439 kts 301°
2026-05-05 07:48 41.88057 92.31913 33915 ft 439 kts 301°
2026-05-05 07:49 41.91943 92.25594 33925 ft 439 kts 301°
2026-05-05 07:49 41.95822 92.19272 33927 ft 439 kts 301°
2026-05-05 07:50 41.99692 92.12954 33937 ft 438 kts 301°
2026-05-05 07:50 42.03552 92.06638 33927 ft 437 kts 301°
2026-05-05 07:51 42.07402 92.00325 33931 ft 436 kts 301°
2026-05-05 07:51 42.11241 91.94014 33936 ft 435 kts 301°
2026-05-05 07:52 42.15071 91.87704 33948 ft 435 kts 301°
2026-05-05 07:52 42.18899 91.81387 33967 ft 434 kts 300°
2026-05-05 07:53 42.22901 91.75249 33942 ft 442 kts 308°
2026-05-05 07:53 42.27988 91.70355 33952 ft 455 kts 319°
2026-05-05 07:54 42.33436 91.65993 33950 ft 455 kts 319°
2026-05-05 07:54 42.38875 91.61612 33942 ft 454 kts 319°
2026-05-05 07:55 42.44272 91.57204 33941 ft 452 kts 319°
2026-05-05 07:55 42.48735 91.53534 33939 ft 451 kts 319°
2026-05-05 07:56 42.54939 91.48418 33937 ft 451 kts 319°
2026-05-05 07:56 42.59411 91.44723 33939 ft 451 kts 319°
2026-05-05 07:57 42.64787 91.40273 33942 ft 454 kts 320°
2026-05-05 07:57 42.70186 91.35798 33941 ft 455 kts 320°
2026-05-05 07:58 42.75595 91.31307 33938 ft 456 kts 320°
2026-05-05 07:58 42.81012 91.26799 33937 ft 457 kts 320°
2026-05-05 07:59 42.86398 91.22306 33948 ft 457 kts 320°
2026-05-05 07:59 42.91216 91.16942 33945 ft 442 kts 307°
2026-05-05 08:00 42.95534 91.10964 33947 ft 442 kts 307°
2026-05-05 08:00 42.99863 91.04985 33955 ft 443 kts 308°
2026-05-05 08:01 43.04226 90.99010 33974 ft 445 kts 309°
2026-05-05 08:01 43.08607 90.93024 33969 ft 446 kts 309°
2026-05-05 08:02 43.12998 90.87016 33963 ft 446 kts 309°
2026-05-05 08:02 43.17385 90.80998 33960 ft 446 kts 309°
2026-05-05 08:03 43.21771 90.74966 33990 ft 446 kts 309°
2026-05-05 08:03 43.26153 90.68927 33987 ft 447 kts 309°
2026-05-05 08:04 43.30522 90.62892 34020 ft 446 kts 309°
2026-05-05 08:04 43.34889 90.56847 34063 ft 446 kts 309°
2026-05-05 08:05 43.39229 90.50755 34061 ft 444 kts 307°
2026-05-05 08:05 43.43407 90.44507 34140 ft 444 kts 307°
2026-05-05 08:06 43.47570 90.38234 34131 ft 443 kts 307°
2026-05-05 08:06 43.51683 90.32069 34144 ft 443 kts 308°
2026-05-05 08:07 43.55851 90.25824 34158 ft 442 kts 308°
2026-05-05 08:07 43.59986 90.19618 34167 ft 442 kts 307°
2026-05-05 08:08 43.64138 90.13374 34200 ft 441 kts 307°
2026-05-05 08:08 43.68318 90.07074 34178 ft 442 kts 308°
2026-05-05 08:09 43.72487 90.00835 34168 ft 442 kts 308°
2026-05-05 08:09 43.76632 89.94640 34162 ft 441 kts 308°
2026-05-05 08:10 43.80789 89.88405 34166 ft 440 kts 308°
2026-05-05 08:10 43.84934 89.82168 34163 ft 439 kts 308°
2026-05-05 08:11 43.89062 89.75943 34146 ft 438 kts 308°
2026-05-05 08:11 43.93179 89.69721 34132 ft 437 kts 308°
2026-05-05 08:12 43.97058 89.63276 34126 ft 430 kts 296°
2026-05-05 08:12 43.99421 89.55748 34117 ft 423 kts 282°
2026-05-05 08:13 44.00435 89.47731 34123 ft 421 kts 277°
2026-05-05 08:13 44.01313 89.39682 34128 ft 422 kts 277°
2026-05-05 08:14 44.02216 89.31619 34130 ft 422 kts 277°
2026-05-05 08:14 44.03132 89.23549 34154 ft 423 kts 277°
2026-05-05 08:15 44.04048 89.15469 34144 ft 423 kts 277°
2026-05-05 08:15 44.04958 89.07386 34147 ft 423 kts 277°
2026-05-05 08:16 44.05852 88.99383 34002 ft 426 kts 277°
2026-05-05 08:16 44.06305 88.95308 33720 ft 425 kts 277°
2026-05-05 08:16 44.06747 88.91329 33448 ft 422 kts 277°
2026-05-05 08:17 44.07193 88.87297 33177 ft 422 kts 277°
2026-05-05 08:17 44.07638 88.83263 32918 ft 422 kts 277°
2026-05-05 08:17 44.08089 88.79224 32670 ft 423 kts 277°
2026-05-05 08:17 44.08542 88.75184 32420 ft 423 kts 277°
2026-05-05 08:18 44.08988 88.71197 32172 ft 423 kts 277°
2026-05-05 08:18 44.09440 88.67144 31408 ft 428 kts 277°
2026-05-05 08:18 44.09901 88.62993 30578 ft 426 kts 277°
2026-05-05 08:18 44.10345 88.58975 29604 ft 426 kts 277°
2026-05-05 08:19 44.10793 88.54905 28792 ft 423 kts 276°
2026-05-05 08:19 44.11234 88.50881 28165 ft 423 kts 276°
2026-05-05 08:19 44.11674 88.46835 27539 ft 420 kts 276°
2026-05-05 08:19 44.12108 88.42846 26913 ft 413 kts 276°
2026-05-05 08:20 44.12535 88.38921 26277 ft 408 kts 276°
2026-05-05 08:20 44.12953 88.35050 25668 ft 402 kts 276°
2026-05-05 08:20 44.13365 88.31226 25062 ft 397 kts 276°
2026-05-05 08:20 44.13772 88.27443 24452 ft 393 kts 276°
2026-05-05 08:21 44.14174 88.23700 23866 ft 389 kts 276°
2026-05-05 08:21 44.14571 88.19991 23208 ft 386 kts 277°
2026-05-05 08:21 44.14960 88.16322 22656 ft 379 kts 277°
2026-05-05 08:21 44.15340 88.12711 22063 ft 375 kts 277°
2026-05-05 08:22 44.15716 88.09129 21451 ft 372 kts 277°
2026-05-05 08:22 44.16130 88.05582 20857 ft 370 kts 281°
2026-05-05 08:22 44.16670 88.02089 20279 ft 367 kts 282°
2026-05-05 08:22 44.16806 87.98562 19680 ft 368 kts 263°
2026-05-05 08:23 44.16158 87.95116 19126 ft 370 kts 250°
2026-05-05 08:23 44.15019 87.91903 18576 ft 372 kts 245°
2026-05-05 08:23 44.13772 87.88721 17936 ft 375 kts 244°
2026-05-05 08:23 44.12508 87.85523 17342 ft 379 kts 244°
2026-05-05 08:24 44.11244 87.82276 16762 ft 384 kts 244°
2026-05-05 08:24 44.09986 87.78994 16174 ft 384 kts 244°
2026-05-05 08:24 44.08754 87.75766 15609 ft 382 kts 244°
2026-05-05 08:24 44.07423 87.72590 15033 ft 381 kts 234°
2026-05-05 08:25 44.05477 87.70092 14500 ft 382 kts 219°
2026-05-05 08:25 44.03366 87.67871 13948 ft 380 kts 219°
2026-05-05 08:25 44.01280 87.65629 13350 ft 378 kts 220°
2026-05-05 08:25 43.99215 87.63386 12781 ft 376 kts 220°
2026-05-05 08:26 43.97202 87.61185 12638 ft 362 kts 221°
2026-05-05 08:26 43.95257 87.59054 12464 ft 350 kts 221°
2026-05-05 08:26 43.93377 87.56996 12299 ft 339 kts 221°
2026-05-05 08:26 43.91502 87.55100 12046 ft 331 kts 214°
2026-05-05 08:27 43.89519 87.53593 11836 ft 316 kts 210°
2026-05-05 08:27 43.87609 87.52229 11684 ft 302 kts 211°
2026-05-05 08:27 43.85786 87.50891 11530 ft 293 kts 212°
2026-05-05 08:27 43.84003 87.49550 11401 ft 289 kts 212°
2026-05-05 08:28 43.82263 87.48228 11254 ft 280 kts 212°
2026-05-05 08:28 43.80636 87.46893 11063 ft 264 kts 225°
2026-05-05 08:28 43.79616 87.44964 10912 ft 240 kts 248°
2026-05-05 08:28 43.79027 87.42820 10649 ft 236 kts 258°
2026-05-05 08:29 43.78585 87.40641 10354 ft 235 kts 259°
2026-05-05 08:29 43.78144 87.38475 10076 ft 233 kts 259°
2026-05-05 08:29 43.77699 87.36347 9783 ft 230 kts 259°
2026-05-05 08:30 43.76823 87.32200 9233 ft 217 kts 258°
2026-05-05 08:30 43.76406 87.30243 8996 ft 207 kts 259°
2026-05-05 08:30 43.76006 87.28373 8733 ft 199 kts 259°
2026-05-05 08:30 43.75616 87.26550 8517 ft 195 kts 259°
2026-05-05 08:31 43.75262 87.24750 8262 ft 192 kts 268°
2026-05-05 08:31 43.75487 87.23021 8014 ft 181 kts 302°
2026-05-05 08:31 43.76319 87.21753 7758 ft 180 kts 328°
2026-05-05 08:31 43.77485 87.21097 7549 ft 183 kts 343°
2026-05-05 08:32 43.78729 87.20578 7311 ft 190 kts 342°
2026-05-05 08:32 43.79994 87.20059 7020 ft 186 kts 340°
2026-05-05 08:32 43.81214 87.19561 6760 ft 179 kts 340°
2026-05-05 08:32 43.82395 87.19074 6534 ft 177 kts 340°
2026-05-05 08:33 43.83580 87.18601 6270 ft 179 kts 346°
2026-05-05 08:33 43.84836 87.18740 6024 ft 187 kts 13°
2026-05-05 08:33 43.85985 87.19669 5781 ft 198 kts 37°
2026-05-05 08:33 43.86695 87.21329 5583 ft 203 kts 65°
2026-05-05 08:34 43.87204 87.23145 5283 ft 203 kts 63°
2026-05-05 08:34 43.87678 87.24992 5063 ft 206 kts 68°
2026-05-05 08:34 43.88089 87.26885 4806 ft 202 kts 69°
2026-05-05 08:34 43.88472 87.28715 4502 ft 193 kts 69°
2026-05-05 08:35 43.88822 87.30386 4315 ft 182 kts 69°
2026-05-05 08:35 43.89179 87.32063 4074 ft 180 kts 68°
2026-05-05 08:35 43.89512 87.33681 3820 ft 169 kts 71°
2026-05-05 08:35 43.89839 87.35223 3610 ft 166 kts 69°
2026-05-05 08:36 43.90168 87.36799 3384 ft 170 kts 69°
2026-05-05 08:36 43.90500 87.38357 3177 ft 169 kts 70°
2026-05-05 08:36 43.90825 87.39897 2946 ft 167 kts 69°
2026-05-05 08:36 43.91153 87.41437 2727 ft 165 kts 69°
2026-05-05 08:37 43.91475 87.42961 2488 ft 162 kts 70°
2026-05-05 08:37 43.91788 87.44434 2265 ft 163 kts 70°
2026-05-05 08:37 43.92106 87.45934 2141 ft 155 kts 70°
2026-05-05 08:37 43.92382 87.47222 2132 ft 119 kts 73°
2026-05-05 08:38 43.92574 87.48126 2136 ft 77 kts 73°
2026-05-05 08:38 43.92653 87.48565 2136 ft 19 kts 119°
2026-05-05 08:38 43.92566 87.48608 2135 ft 13 kts 166°
2026-05-05 08:38 43.92482 87.48652 2134 ft 13 kts 159°
2026-05-05 08:39 43.92414 87.48613 2135 ft 12 kts 244°
2026-05-05 08:39 43.92340 87.48577 2135 ft 12 kts 187°
2026-05-05 08:39 43.92280 87.48529 2135 ft 7 kts 176°
2026-05-05 08:39 43.92231 87.48546 2132 ft 7 kts 162°
2026-05-05 08:40 43.92211 87.48554 2135 ft 0 kts 162°